Voltar ao catálogo

COSMOS 1275 DEB

AtivoPO
NORAD 13024·DEBRIS·🇷🇺 Russia

Lançado Jun 4, 1981 de Plesetsk Cosmodrome

Loading…

Próximas Passagens (próximas 24 horas)

TLE

AtualizadoSource: Space-Track

Época: Sep 14, 2026, 13:20 UTC

1 13024U 81053EW  26257.55594044  .00000390  00000-0  21999-3 0  9990
2 13024  82.9223 187.6619 0043801 166.9463 315.8942 14.07481585272902

Acompanhe COSMOS 1275 DEB em tempo real com AllMySat

Download on the App Store